Wetbulb
31.44 32.13 32.59 32.66 32.09 30.47 30.55 31.34 31.63 31.25 30.41 29.28 29.94 29.56 28.32 27.75 27.35 26.87 26.46 25.03 25.16 24.14 24.07 23.93 23.49 23.82 23.01 22.88 23.82 23.02 22.29 21.42 16.63 19.16 21.28 21.47 21.28 21.37 22.39 23.16 23.83 23.47 23.92
32.62 31.56 30.72 31.15 30.00 30.43 31.36 31.26 31.74 31.19 30.58 30.21 30.01 28.97 28.39 28.06 27.61 27.09 25.75 25.28 24.42 23.11 23.15 23.06 22.48 23.30 21.80 21.76 21.74 21.14 20.90 21.25 19.03 16.57 18.98 18.95 19.24 20.76 21.30 21.13 22.62 24.25 24.26
32.00 30.75 30.36 30.40 29.64 31.36 31.95 31.50 31.01 31.13 29.92 30.00 29.63 28.58 28.15 27.89 27.16 27.36 26.87 25.25 24.85 24.09 23.14 22.72 22.02 21.65 20.51 20.05 19.55 19.21 19.13 20.40 19.01 16.76 16.38 19.19 19.65 20.58 20.55 21.55 22.02 22.95 24.61
33.60 30.97 30.47 29.78 31.14 32.20 32.61 31.17 29.56 30.25 29.50 29.54 29.45 28.97 28.43 27.82 27.07 26.83 26.16 24.79 24.23 23.61 22.79 22.68 21.74 21.28 20.67 19.29 19.00 18.83 18.71 17.78 17.97 16.83 16.96 17.54 18.76 21.10 21.51 20.04 19.76 21.32 21.90
31.75 31.96 32.02 32.11 31.76 31.57 30.34 29.96 29.14 29.57 29.92 29.75 28.74 28.33 27.98 27.27 26.77 25.96 25.37 24.40 23.17 22.22 21.82 22.15 21.46 21.55 24.10 22.10 19.52 18.52 18.74 17.33 17.42 17.07 17.12 17.95 18.92 19.91 18.84 20.46 18.94 19.19 20.39
30.64 30.56 31.66 31.89 30.88 29.49 29.55 29.93 28.66 28.05 29.13 28.45 27.90 27.39 26.27 26.50 30.43 30.63 27.32 24.26 22.95 21.65 19.88 20.43 20.36 20.16 22.88 25.94 25.70 24.50 21.61 16.58 12.75 14.13 16.46 17.57 19.07 19.47 20.43 19.08 18.71 17.78 16.28
30.61 30.82 30.93 30.29 29.76 29.96 28.28 27.35 28.16 27.68 27.98 27.34 27.15 26.82 25.82 26.25 30.79 32.06 30.65 24.72 23.10 22.08 20.81 19.78 19.45 20.38 19.78 22.51 26.33 26.43 26.23 26.93 23.62 18.89 14.24 18.46 19.28 19.88 20.01 19.53 19.86 19.81 19.46
29.70 30.31 30.27 29.31 28.29 28.65 26.36 27.14 27.80 27.57 27.06 26.57 26.37 26.29 26.04 25.59 30.67 32.59 30.96 24.67 23.55 22.62 21.59 20.89 20.36 19.85 20.05 21.46 22.24 23.51 23.61 23.24 23.35 22.88 20.98 20.51 20.35 21.96 22.47 22.73 21.41 18.25 17.37
28.67 29.29 28.82 27.41 27.13 27.38 26.49 25.94 26.29 26.57 25.92 26.42 26.65 25.98 25.13 25.01 29.97 32.60 30.42 22.92 22.53 21.06 21.29 21.19 21.29 21.00 23.43 25.03 20.60 19.11 19.68 20.59 24.27 25.64 25.97 26.67 27.17 26.61 25.64 17.30 9.60 7.11 9.76
27.92 29.02 29.33 27.25 25.70 24.61 26.00 24.86 25.70 25.70 25.72 25.29 25.06 25.13 24.38 24.35 28.85 32.47 30.92 21.50 20.07 19.66 20.78 21.57 23.68 21.80 25.07 26.35 20.46 18.58 17.61 19.03 20.16 19.44 20.82 21.31 22.31 19.57 21.67 18.77 14.25 4.22 8.80
26.53 24.27 24.32 27.09 27.58 25.31 22.91 20.44 20.25 23.54 23.38 22.87 22.36 22.47 22.82 22.91 24.84 32.09 31.61 22.15 20.31 19.60 20.00 20.15 21.55 25.09 25.70 26.97 26.44 20.11 19.06 21.15 20.78 18.20 15.77 15.15 15.39 15.49 16.08 16.92 17.27 15.35 11.29
21.38 20.58 22.16 26.63 28.51 26.31 22.70 20.84 22.00 22.39 19.89 16.87 18.64 18.43 20.23 21.00 24.90 31.47 32.31 25.65 25.22 19.70 19.98 20.67 21.34 25.95 26.21 26.95 26.33 24.73 25.08 23.17 12.46 10.49 10.23 11.44 12.23 12.97 14.73 15.96 16.84 17.14 17.32
17.73 18.09 18.96 19.28 21.50 26.63 24.11 22.85 20.82 20.97 19.55 17.63 17.20 16.90 16.76 19.02 21.32 29.30 32.34 29.08 26.97 21.79 21.70 22.31 23.93 26.57 26.61 26.57 26.38 25.62 20.29 14.80 11.93 7.78 8.41 10.02 12.37 13.88 15.07 14.55 15.13 14.95 15.03
12.05 12.44 14.52 15.44 18.80 23.77 23.66 23.46 21.98 20.95 20.20 20.19 18.98 18.10 17.87 18.30 20.02 24.31 28.26 28.91 26.78 23.34 24.00 23.06 23.63 24.76 25.11 19.67 20.40 20.80 15.89 14.08 12.10 10.38 10.37 11.71 12.63 12.02 10.94 12.40 10.59 11.17 10.09
8.33 9.37 10.30 12.82 14.08 17.64 23.32 22.79 22.29 22.75 23.04 21.44 20.99 20.79 18.23 16.89 19.57 24.35 27.75 26.72 24.07 21.28 21.34 20.92 20.61 17.59 15.65 13.67 12.88 12.55 12.31 11.86 10.65 10.84 10.21 9.66 9.71 10.07 9.93 11.47 10.38 8.83 6.63
4.75 6.01 7.63 9.51 10.67 13.77 17.91 21.67 25.57 26.71 26.29 27.32 27.41 23.85 21.83 23.06 24.20 26.50 28.76 29.96 27.07 25.56 18.15 16.38 13.88 13.04 11.98 11.16 10.32 9.87 10.08 9.66 10.01 9.43 8.82 8.29 7.71 7.89 7.98 8.65 8.79 6.47 5.41
2.09 3.53 4.91 6.64 8.54 10.80 14.45 19.11 18.61 21.05 27.21 27.87 28.21 28.26 26.64 23.79 25.45 26.47 28.52 30.08 27.60 25.10 15.49 13.37 12.00 11.31 11.13 10.64 9.95 9.17 8.23 8.92 8.91 7.76 7.36 6.71 6.78 6.29 5.73 5.43 6.17 6.36 5.88
1.51 3.08 3.71 4.78 6.50 8.69 11.83 15.29 19.02 18.30 16.90 20.84 27.29 27.47 28.50 26.01 26.08 26.37 28.21 29.14 24.86 20.84 13.63 12.34 10.83 10.42 9.72 8.52 7.82 7.07 6.51 5.80 5.42 5.29 4.63 4.01 3.22 2.68 2.44 3.07 4.21 3.99 4.87
1.78 3.00 4.76 6.46 7.50 8.80 11.68 15.10 18.26 17.46 17.20 18.94 19.78 24.36 26.58 27.02 25.96 26.73 27.94 24.16 21.43 10.84 11.26 10.78 9.69 8.14 6.88 6.30 5.42 4.35 3.07 1.59 1.31 0.57 -0.45 -0.33 0.36 0.10 0.26 2.03 3.98 4.93 4.99
2.48 3.82 4.46 4.44 5.77 7.77 9.47 13.72 16.16 15.29 15.79 17.47 17.84 20.15 22.19 22.69 21.07 22.22 24.23 22.39 12.61 10.50 8.92 5.56 5.13 4.74 3.18 2.48 1.29 0.09 -1.89 -2.60 -2.21 -2.56 -2.58 -3.19 -1.23 0.11 0.76 1.69 2.93 3.39 5.28
1.87 2.64 3.85 5.05 6.75 9.07 10.53 14.09 14.26 13.85 14.66 15.77 17.57 20.51 22.73 19.79 19.94 21.63 18.35 11.54 8.21 6.26 5.55 3.89 2.34 0.74 -0.55 -1.51 -3.08 -4.47 -4.14 -2.42 -3.55 -4.34 -6.06 -5.07 -2.23 -2.12 0.36 2.01 2.77 3.84 6.04
4.39 6.10 7.05 7.90 9.71 10.87 13.95 13.72 13.93 13.51 14.47 15.63 17.29 18.98 24.64 18.68 11.05 8.20 7.00 5.32 4.21 3.57 3.17 1.54 -0.65 -2.62 -2.75 -3.41 -5.06 -5.61 -5.80 -6.37 -10.34 -11.54 -7.66 -4.71 -1.91 -1.45 -0.74 1.22 2.75 5.59 4.34
6.60 8.43 11.64 11.56 12.45 13.20 12.73 13.15 12.98 13.52 14.61 14.88 15.43 12.43 6.79 5.00 4.22 2.32 0.20 -0.20 -0.75 -2.06 -2.57 -1.82 -3.94 -5.56 -6.47 -8.48 -9.19 -7.53 -7.10 -9.73 -9.83 -11.48 -10.58 -6.93 -5.06 -3.34 -1.81 1.12 3.65 3.46 2.13
6.26 7.17 8.62 9.78 10.19 9.57 9.26 7.46 8.67 10.82 11.54 6.01 4.61 3.77 3.34 2.84 1.09 -0.53 -1.67 -2.60 -3.93 -5.77 -6.58 -6.09 -5.71 -6.18 -8.93 -12.07 -12.94 -13.22 -12.96 -12.53 -12.96 -13.66 -12.19 -7.64 -5.86 -4.19 -0.37 3.77 3.81 2.33 0.46
4.31 4.51 4.85 5.36 5.77 5.98 6.06 7.04 7.14 4.09 3.99 3.23 2.11 1.18 0.85 0.41 -1.08 -2.38 -3.36 -4.01 -5.81 -6.98 -8.27 -8.24 -8.21 -9.01 -10.23 -11.38 -12.44 -11.98 -11.30 -4.06 -6.83 -8.25 -7.76 -5.14 -6.16 -3.00 2.80 3.26 1.19 0.36 -2.04
2.16 2.53 2.66 3.09 3.22 3.92 3.96 3.27 2.63 2.20 1.14 0.96 1.09 0.95 0.55 -1.02 -2.19 -3.52 -4.54 -5.08 -5.54 -5.97 -7.30 -8.31 -9.40 -10.61 -11.13 -11.22 -10.67 -7.63 -6.36 -0.60 -2.71 -2.32 -2.63 1.32 5.94 6.39 3.73 0.53 -2.83 -2.90 -3.33
MSLP
1007.29 1006.85 1006.46 1006.57 1007.13 1007.01 1007.17 1007.52 1007.80 1008.24 1008.91 1009.79 1010.60 1011.69 1012.33 1013.13 1014.03 1014.51 1015.10 1015.86 1016.81 1017.85 1018.42 1019.23 1019.83 1020.51 1021.31 1021.87 1022.28 1022.82 1023.48 1024.25 1024.89 1024.76 1024.50 1024.17 1024.25 1024.17 1023.89 1023.97 1023.84 1023.42 1023.29
1006.93 1006.52 1006.34 1006.45 1006.70 1006.96 1006.68 1006.76 1007.42 1007.62 1008.01 1008.47 1009.40 1010.32 1011.48 1012.03 1012.92 1013.34 1014.02 1014.06 1014.86 1016.27 1017.29 1018.35 1019.07 1019.91 1020.68 1021.39 1021.99 1022.65 1023.15 1023.86 1024.52 1024.89 1024.62 1024.43 1024.36 1024.11 1024.26 1024.23 1023.99 1023.13 1022.69
1006.96 1006.42 1006.19 1006.05 1006.07 1006.08 1005.61 1006.01 1006.37 1007.21 1007.68 1008.06 1008.36 1008.72 1009.85 1010.97 1011.86 1012.55 1012.57 1013.13 1013.48 1014.35 1015.72 1016.82 1017.71 1018.84 1019.99 1020.51 1021.41 1022.15 1022.62 1023.08 1023.75 1024.27 1024.12 1023.71 1023.62 1023.80 1023.63 1023.11 1022.60 1022.36 1022.29
1007.39 1006.69 1006.27 1005.88 1005.35 1005.30 1005.32 1004.98 1005.57 1005.73 1006.14 1006.85 1007.12 1007.44 1007.60 1009.18 1010.09 1011.68 1011.89 1012.32 1012.83 1013.47 1014.45 1015.70 1016.62 1017.20 1018.09 1019.10 1020.24 1021.04 1021.77 1022.65 1023.00 1023.21 1023.44 1023.51 1022.89 1022.55 1022.11 1022.07 1021.91 1021.40 1021.41
1007.71 1007.02 1006.30 1005.50 1004.84 1004.52 1004.43 1004.29 1004.85 1005.17 1005.58 1005.96 1005.97 1006.61 1006.70 1007.58 1008.40 1009.82 1010.56 1010.94 1011.70 1012.79 1013.79 1014.63 1015.52 1016.14 1016.80 1017.57 1018.74 1019.94 1020.98 1021.70 1022.07 1022.27 1022.36 1021.98 1021.89 1021.34 1021.03 1021.42 1021.03 1020.90 1020.70
1008.04 1007.45 1006.73 1005.72 1004.77 1004.31 1004.24 1003.97 1004.02 1004.14 1004.88 1005.25 1005.46 1005.40 1006.07 1006.25 1006.93 1008.11 1009.28 1009.43 1010.29 1011.46 1012.78 1014.11 1014.94 1015.58 1016.04 1016.82 1017.75 1018.40 1019.18 1020.24 1020.89 1021.14 1021.03 1020.73 1020.84 1020.63 1020.62 1020.77 1020.85 1020.21 1019.74
1008.60 1007.80 1007.10 1006.60 1005.20 1004.14 1003.64 1003.27 1003.48 1003.20 1003.82 1004.01 1004.47 1004.97 1004.71 1005.43 1006.14 1007.17 1008.06 1008.46 1009.19 1010.04 1011.08 1012.38 1013.67 1014.47 1015.22 1016.10 1016.96 1017.65 1018.15 1018.83 1019.39 1019.28 1019.37 1019.69 1020.07 1019.71 1019.91 1019.79 1020.05 1020.03 1020.03
1008.25 1007.46 1006.96 1006.36 1005.11 1004.26 1003.51 1003.55 1003.03 1003.03 1002.97 1003.01 1003.56 1004.15 1004.13 1004.41 1005.10 1005.87 1007.09 1007.55 1008.06 1009.19 1010.07 1010.74 1011.67 1012.80 1013.91 1015.03 1016.16 1017.22 1017.38 1017.73 1017.86 1018.10 1017.83 1019.07 1019.44 1019.31 1019.19 1018.96 1019.08 1019.43 1019.43
1007.99 1007.49 1006.82 1005.59 1005.04 1004.20 1003.50 1003.42 1002.91 1003.03 1002.74 1002.63 1002.94 1003.01 1003.35 1004.09 1004.22 1004.98 1005.97 1007.29 1007.82 1008.39 1009.69 1010.73 1011.35 1012.30 1012.81 1013.87 1015.09 1016.55 1016.93 1017.23 1017.29 1016.96 1016.92 1017.67 1018.14 1018.33 1018.60 1018.53 1018.89 1019.20 1018.59
1007.66 1006.76 1006.14 1005.64 1005.14 1004.24 1003.87 1003.57 1003.08 1003.07 1002.80 1003.07 1002.79 1002.66 1002.61 1003.01 1003.77 1004.50 1005.22 1006.52 1007.51 1008.35 1009.25 1010.15 1010.93 1011.13 1012.01 1013.27 1014.69 1015.90 1016.71 1016.64 1016.53 1016.34 1016.58 1017.36 1018.03 1018.34 1018.35 1018.21 1018.50 1019.02 1018.78
1007.75 1007.17 1006.36 1005.71 1005.28 1003.99 1003.15 1003.20 1003.24 1003.08 1002.12 1002.64 1002.30 1002.65 1002.78 1003.07 1002.72 1003.64 1004.51 1006.06 1006.58 1007.59 1008.45 1009.44 1010.28 1010.60 1011.35 1012.89 1014.09 1014.88 1015.62 1016.36 1016.30 1015.91 1016.61 1017.30 1017.76 1017.87 1017.82 1017.70 1017.79 1018.13 1017.95
1007.61 1007.37 1006.18 1005.13 1004.35 1003.52 1002.84 1002.26 1002.48 1002.66 1002.62 1001.66 1002.25 1002.71 1003.10 1002.64 1002.30 1002.65 1003.64 1005.35 1006.33 1006.79 1007.34 1008.62 1009.49 1010.02 1011.02 1012.09 1013.10 1014.20 1015.04 1015.41 1016.07 1016.35 1016.92 1017.21 1017.37 1017.32 1017.09 1017.15 1017.04 1017.03 1016.90
1007.99 1006.83 1006.00 1005.25 1004.44 1002.82 1002.17 1002.06 1001.63 1001.69 1002.17 1002.03 1001.53 1001.82 1002.25 1002.04 1002.25 1002.20 1002.69 1004.12 1005.22 1005.99 1007.03 1008.19 1008.89 1009.89 1010.85 1011.62 1012.52 1013.40 1013.89 1015.18 1015.37 1016.18 1016.49 1016.76 1016.87 1016.78 1016.46 1016.37 1016.42 1016.30 1016.37
1008.10 1007.09 1006.05 1004.91 1003.73 1002.26 1001.43 1001.24 1001.11 1000.39 1000.51 1001.05 1001.23 1000.70 1000.95 1001.59 1001.88 1001.82 1001.96 1002.68 1003.95 1005.33 1006.70 1008.13 1008.90 1009.46 1009.73 1011.49 1012.13 1013.19 1014.07 1014.66 1015.01 1015.31 1015.99 1016.18 1016.42 1016.30 1016.13 1016.29 1016.08 1015.90 1015.63
1007.65 1006.47 1005.36 1004.36 1003.23 1001.66 1000.43 999.91 999.81 999.01 998.67 998.89 999.34 1000.01 1000.13 1000.28 1000.37 1000.92 1001.21 1001.75 1003.06 1004.35 1005.77 1007.45 1008.59 1009.62 1010.27 1011.24 1012.09 1013.22 1013.76 1014.65 1014.80 1015.23 1015.70 1015.81 1016.04 1016.20 1016.26 1015.95 1015.53 1015.47 1015.28
1006.77 1005.75 1004.80 1003.90 1002.68 1001.45 1000.16 998.67 998.27 997.97 997.58 997.59 998.01 998.53 998.94 999.19 999.64 1000.26 1000.50 1001.47 1002.82 1003.61 1005.10 1006.73 1008.35 1009.22 1009.91 1010.81 1012.50 1013.51 1013.93 1014.25 1014.53 1015.22 1015.54 1015.75 1015.58 1015.78 1016.15 1016.00 1015.68 1015.52 1014.58
1006.33 1005.16 1004.15 1003.17 1002.04 1000.97 1000.08 998.24 997.38 996.97 996.87 996.92 996.83 997.62 997.99 998.26 998.74 999.18 999.67 1000.30 1001.87 1003.60 1004.45 1005.91 1007.88 1008.96 1009.58 1010.30 1011.57 1012.73 1013.31 1013.91 1014.78 1015.06 1015.44 1015.43 1015.39 1015.34 1015.52 1015.63 1015.61 1015.02 1014.13
1005.33 1004.37 1003.52 1002.51 1001.58 1000.51 999.43 998.11 997.01 996.72 996.42 995.85 996.00 996.62 997.12 997.64 998.14 998.66 998.68 1000.06 1001.07 1002.51 1004.54 1005.43 1006.99 1008.19 1009.41 1010.00 1010.93 1012.15 1012.98 1013.53 1014.53 1015.02 1015.44 1015.55 1015.43 1015.37 1015.42 1015.21 1015.01 1014.38 1013.75
1004.02 1003.05 1002.19 1001.17 1000.32 999.46 998.40 997.31 996.12 995.85 995.43 995.44 996.13 996.08 996.10 997.09 997.69 997.99 997.83 998.73 1000.07 1002.03 1003.93 1005.18 1006.59 1008.33 1009.32 1010.19 1010.85 1011.66 1012.43 1013.23 1013.93 1014.69 1015.19 1015.09 1015.34 1015.74 1015.46 1014.89 1014.36 1013.66 1013.23
1002.43 1001.53 1000.78 1000.05 999.22 998.29 997.51 996.42 995.30 995.32 995.40 995.38 995.22 995.25 996.08 997.04 997.47 997.61 997.75 999.11 1001.15 1002.37 1003.93 1005.33 1006.61 1008.39 1009.56 1010.44 1011.11 1011.90 1012.44 1013.12 1013.49 1013.89 1014.32 1014.69 1014.86 1015.17 1014.83 1014.21 1013.86 1013.14 1012.39
1000.97 999.94 998.97 998.29 997.43 996.61 995.99 995.09 994.79 994.90 995.11 995.15 995.10 995.39 995.87 996.32 997.19 997.83 998.53 1000.25 1001.92 1003.34 1004.46 1005.52 1006.99 1008.41 1010.01 1010.83 1011.16 1012.04 1012.49 1012.68 1012.84 1013.55 1013.94 1014.26 1014.38 1014.39 1013.74 1013.36 1013.00 1012.18 1011.19
999.30 997.92 996.82 996.09 995.57 995.15 994.52 994.35 994.47 994.65 994.79 994.91 995.07 995.24 995.73 996.86 998.15 999.22 1000.37 1001.60 1002.70 1004.27 1005.31 1006.27 1007.89 1008.76 1010.25 1010.65 1011.11 1012.05 1012.32 1012.80 1013.14 1013.41 1013.68 1013.84 1013.45 1013.09 1012.82 1012.51 1011.90 1011.24 1010.61
997.83 996.37 994.79 994.15 994.20 994.05 994.03 994.14 994.33 994.58 994.80 995.09 995.50 996.14 997.55 998.48 999.59 1000.67 1001.73 1002.89 1004.02 1005.52 1006.39 1007.31 1008.35 1009.26 1010.31 1010.93 1011.21 1011.57 1011.96 1012.65 1012.40 1012.88 1013.27 1012.83 1012.57 1012.37 1012.02 1011.52 1010.97 1010.33 1009.83
997.53 996.31 995.29 994.66 994.41 994.39 994.44 994.62 994.76 995.01 995.42 996.31 997.08 998.05 998.93 999.68 1000.61 1001.98 1003.01 1004.18 1005.27 1006.75 1007.54 1008.26 1008.88 1009.43 1010.41 1010.83 1010.91 1011.29 1011.88 1012.18 1012.39 1012.30 1012.08 1011.96 1011.91 1011.37 1010.83 1010.43 1010.09 1009.72 1009.14
998.20 997.30 996.62 996.19 995.91 995.81 995.79 995.91 996.15 996.59 997.16 997.77 998.56 999.27 1000.08 1001.03 1001.95 1003.09 1004.04 1005.25 1006.63 1007.71 1008.49 1009.08 1009.42 1009.54 1009.69 1010.12 1010.82 1011.33 1011.45 1011.23 1011.02 1010.92 1011.05 1010.99 1010.61 1010.04 1009.63 1009.56 1009.36 1008.95 1008.24
999.43 998.73 998.19 997.79 997.58 997.48 997.52 997.72 998.07 998.46 998.93 999.51 1000.14 1000.85 1001.55 1002.33 1003.29 1004.26 1005.51 1006.59 1007.64 1008.39 1008.67 1008.81 1009.05 1009.47 1009.91 1010.30 1010.52 1010.54 1010.40 1010.09 1009.87 1009.68 1009.60 1009.30 1008.89 1008.60 1008.71 1008.73 1008.47 1008.12 1007.37
Wind_Speed
7 6 7 7 7 6 10 11 13 12 14 15 16 16 16 16 15 15 14 13 14 11 9 11 10 8 6 6 5 4 4 4 4 2 2 3 5 7 8 8 8 8 7
7 7 8 7 8 9 12 13 12 13 13 15 15 15 16 17 17 18 17 16 17 15 14 12 11 8 9 7 6 7 6 6 4 5 3 3 6 6 8 9 8 7 8
8 7 7 8 9 14 14 12 12 12 12 13 15 17 17 17 17 18 18 17 17 17 16 15 14 13 10 8 7 7 6 6 6 4 4 5 5 6 8 8 6 6 5
16 11 11 9 13 14 12 11 12 14 15 16 17 18 18 18 18 18 17 16 15 14 15 14 14 15 14 13 10 10 8 7 7 6 5 6 6 6 4 3 5 2 6
15 16 15 13 11 11 10 10 10 14 14 15 15 16 16 16 15 19 19 18 17 15 14 14 13 14 20 16 10 10 10 7 6 6 6 3 3 2 2 4 6 7 8
13 13 15 16 11 10 11 11 12 13 14 13 16 16 15 13 26 32 23 17 18 17 16 13 12 14 17 22 22 21 16 11 8 5 4 4 5 3 2 4 7 7 5
13 12 12 14 12 11 8 7 11 12 11 14 14 15 17 16 28 32 31 16 17 17 17 16 13 11 14 13 21 21 21 21 14 9 6 5 5 3 5 6 7 8 9
15 13 13 15 15 11 6 10 10 9 12 13 14 15 15 15 29 32 31 16 16 17 17 18 17 17 17 14 11 12 11 9 7 4 3 4 5 7 8 6 7 5 7
15 15 14 13 15 14 11 10 8 8 9 11 12 14 16 14 28 30 28 14 14 15 14 14 15 15 23 25 14 12 10 9 11 15 13 14 13 13 10 1 2 2 5
17 18 17 15 13 12 12 10 7 8 9 8 10 11 14 14 25 30 27 11 13 11 12 12 19 15 25 25 12 11 10 10 9 5 2 5 6 6 13 5 2 3 3
16 18 19 18 16 11 8 4 5 9 7 8 7 7 10 12 16 30 33 13 12 12 11 11 10 23 24 24 22 11 10 7 9 4 3 2 4 5 4 4 5 5 5
17 19 18 18 14 10 9 7 7 7 8 6 7 5 6 9 17 27 32 22 19 12 13 11 12 25 24 24 19 16 16 9 4 3 1 2 3 4 4 5 7 8 8
18 19 18 19 18 14 11 10 6 7 7 7 8 8 7 7 8 25 31 28 26 11 9 15 21 25 24 19 19 17 8 5 4 3 3 3 3 4 7 7 8 10 12
18 19 17 17 17 16 9 8 9 8 9 9 9 10 9 9 9 9 14 16 23 16 20 14 17 19 17 11 7 8 4 5 5 4 4 3 3 4 4 5 6 7 9
18 17 17 14 16 15 13 10 11 11 12 9 10 9 9 11 13 19 16 11 13 16 15 11 10 9 9 8 6 6 6 6 5 4 3 2 3 4 5 5 6 7 9
19 15 13 12 12 12 13 12 20 24 20 25 22 15 10 16 22 28 29 24 28 32 13 12 10 10 10 9 8 7 5 6 4 3 2 2 3 4 5 6 6 7 9
18 17 14 14 12 12 13 12 11 9 25 25 25 25 24 19 25 30 31 30 31 29 10 12 10 9 9 9 9 7 6 5 4 3 2 2 3 4 6 6 7 8 9
18 22 15 14 13 13 13 14 10 9 8 9 22 21 24 22 25 28 31 29 18 18 10 12 11 10 9 9 8 7 6 6 4 2 2 2 3 3 6 7 7 9 10
16 13 14 13 12 15 14 14 10 9 8 7 5 14 16 22 23 28 33 14 14 12 11 10 9 8 8 7 7 6 6 5 4 3 1 2 2 3 6 8 9 12 14
16 21 20 14 13 13 12 15 9 8 8 7 7 8 7 10 10 12 14 10 9 10 9 9 9 8 7 6 6 5 5 5 4 3 2 2 3 5 7 8 9 10 11
13 14 19 14 13 12 11 10 7 7 7 7 7 8 16 11 8 9 7 10 10 8 8 9 8 8 6 5 6 5 4 4 4 3 3 3 4 6 6 7 9 10 12
12 13 13 12 11 11 11 8 6 6 6 6 5 8 24 6 8 9 9 8 9 8 7 9 6 6 5 5 5 4 4 3 3 3 2 4 5 5 7 8 9 10 11
11 12 10 7 7 5 4 4 5 5 5 5 4 7 8 9 9 9 9 9 9 8 6 7 7 5 3 3 3 3 4 5 4 4 5 4 4 6 7 8 9 9 11
9 8 6 5 4 4 4 5 5 6 8 8 8 8 8 8 10 11 10 9 9 7 5 5 4 6 5 3 2 2 3 3 4 5 6 5 7 8 7 8 8 11 12
8 7 8 7 7 6 6 6 8 8 8 8 8 9 9 9 11 10 9 9 7 6 5 4 3 4 4 4 5 7 8 10 7 7 5 7 9 11 9 7 8 10 12
9 8 7 7 7 8 7 8 8 8 8 8 8 8 9 9 9 9 8 8 6 5 5 3 2 3 4 5 7 9 9 10 9 12 8 7 8 6 6 7 9 8 11
Wind_Direction
288 263 234 221 222 187 192 196 194 182 180 181 184 190 187 187 188 186 184 174 183 177 174 180 183 166 173 169 161 154 162 153 178 272 271 360 346 324 314 302 300 291 283
265 244 234 218 200 205 210 208 201 198 190 185 183 187 190 191 191 192 190 183 180 182 181 179 182 170 172 165 169 176 179 181 155 193 215 206 219 223 248 258 263 267 280
308 270 252 232 211 223 221 211 200 199 194 192 185 187 191 196 194 201 193 187 186 185 181 182 179 171 175 169 172 183 184 185 190 180 207 215 228 240 245 237 237 241 249
333 312 277 246 233 234 232 210 201 196 191 195 198 197 189 191 192 200 194 188 187 184 179 183 177 180 178 171 181 188 182 191 194 196 212 231 221 229 228 276 290 281 295
329 326 314 279 258 248 231 216 205 205 210 208 197 203 192 192 191 193 193 187 182 180 180 180 183 182 180 177 173 180 183 193 194 197 214 216 238 248 313 294 309 311 300
326 321 316 310 279 237 231 218 204 202 210 205 209 199 198 199 200 197 192 185 182 180 179 181 176 172 186 190 194 192 190 185 191 182 201 218 258 262 299 312 305 319 338
319 318 324 317 298 276 251 223 222 209 202 207 208 207 205 206 203 201 197 189 183 184 178 174 173 181 177 186 199 198 203 208 203 188 183 195 243 244 274 289 290 298 289
320 322 328 328 323 300 259 246 233 217 210 206 210 212 209 210 206 201 197 191 187 187 183 177 176 173 178 178 184 205 208 212 225 236 160 218 235 250 238 256 295 303 289
316 317 321 328 323 314 286 259 249 238 221 216 213 206 208 214 206 200 190 188 185 178 176 177 176 175 179 182 178 196 200 210 223 222 222 234 260 286 285 359 277 295 296
319 321 321 318 309 304 288 273 252 238 234 223 220 212 204 201 203 202 190 179 178 171 168 170 177 170 180 187 177 185 203 209 203 190 176 267 267 279 287 277 183 213 275
316 316 313 305 295 286 272 235 233 234 204 215 207 207 202 197 197 202 190 187 178 171 171 170 178 177 179 192 191 188 203 196 209 160 144 197 251 261 265 263 255 248 252
312 303 302 306 300 291 264 233 224 224 221 174 179 187 200 195 202 204 196 187 185 171 173 173 174 179 183 191 196 191 208 188 134 123 149 262 265 261 269 274 278 268 255
301 301 304 302 296 288 272 259 219 202 220 217 188 187 190 186 203 208 199 184 191 171 161 168 170 180 186 190 192 198 161 150 153 157 188 223 244 270 292 296 285 280 272
295 294 295 294 293 291 258 247 237 210 204 214 219 203 185 183 195 204 195 181 183 172 165 169 177 179 167 146 145 171 156 175 184 173 196 223 269 280 277 280 289 296 291
290 289 288 287 287 287 271 242 238 231 214 211 213 210 192 195 204 194 194 178 173 162 147 156 170 159 157 152 149 167 169 177 176 182 204 236 281 294 285 282 291 289 282
286 286 282 284 286 285 285 267 247 244 237 234 229 207 206 205 193 199 200 188 175 163 152 162 169 167 165 153 161 173 175 168 154 169 195 235 266 291 293 299 293 279 284
277 282 283 281 281 281 278 270 260 252 246 238 234 230 216 203 198 197 199 186 172 163 169 162 170 169 162 158 160 163 162 147 147 163 213 249 278 294 298 289 285 290 284
272 273 273 273 272 272 268 271 249 240 236 230 230 231 223 208 206 201 195 185 176 167 166 162 163 161 161 154 148 155 148 141 151 160 223 276 295 289 288 285 287 287 292
275 271 268 265 264 264 268 276 237 231 229 232 200 230 207 204 212 204 194 189 177 156 155 156 147 151 148 148 145 143 139 144 146 158 221 247 282 271 273 275 282 290 286
277 269 262 261 258 255 256 259 225 219 218 214 203 204 172 183 203 198 195 173 147 146 142 133 130 134 138 146 143 141 138 155 158 169 199 202 248 251 265 278 283 290 287
272 269 259 258 255 250 247 237 214 208 210 207 204 191 180 177 192 191 147 133 129 130 137 132 134 130 138 146 141 148 160 160 153 176 185 218 241 258 263 271 277 277 296
276 269 259 247 244 240 234 210 202 200 200 196 188 181 188 163 118 115 110 106 103 105 107 114 118 124 151 158 148 156 156 173 174 171 205 238 248 262 266 269 277 283 300
293 288 283 235 232 211 183 181 184 189 179 162 129 104 94 106 108 107 102 97 95 98 91 108 119 120 126 130 134 156 168 205 190 172 206 231 255 259 260 270 278 295 299
316 328 349 16 42 59 67 72 80 90 91 92 89 95 102 104 101 101 101 100 93 91 90 108 122 138 156 162 161 185 219 218 196 200 202 231 250 263 265 266 281 288 291
346 3 18 26 37 48 60 66 67 73 81 87 89 88 90 97 98 96 90 87 94 108 123 138 149 148 157 186 209 221 227 240 228 213 213 227 242 257 259 273 275 286 289
1 12 24 33 39 43 51 57 59 62 71 76 83 88 97 97 96 98 103 110 118 127 129 120 125 175 211 226 235 240 241 241 233 225 221 232 253 265 274 256 269 284 287